sat.trackr.live / text

‹ back to catalog

STARLINK-37428

NORAD 69184 · 2026-114C

PAYLOAD ACTIVE UNKNOWN

§ Identity

Operator
Country
US
Launch date
2026-05-25
Launch site
AFETR
Launch vehicle
Mass (kg)
RCS (m²)

Purposes: comms

External: N2YO · Heavens-Above · Gunter

§ Orbital elements

Epoch: 2026-09-19T22:10:27.933888Z

Period
93.85 min
Inclination
53.1576°
Eccentricity
0.0000950
Mean motion
15.34401623 rev/d
Perigee alt
462.0 km
Apogee alt
463.3 km
Semi-major
6,840.8 km
B*
3.5052e-4
RAAN
116.7225°
Arg perigee
78.8387°
Mean anomaly
281.2722°
Rev number
1,935

§ Raw data

STARLINK-374281 69184U 26114C   26262.92393442  .00011486  00000+0  35052-3 0  99932 69184  53.1576 116.7225 0000950  78.8387 281.2722 15.34401623 19357

JSON: /api/v1/satellites/69184 · /tle

For live sub-satellite position, see the globe view (requires WebGL).

§ Visibility from observer

Set your observer location to see the next 7 days of passes ≥ 10°. The values pass through the URL so the page stays shareable.

No JS? Fill the form by hand. The geolocation button needs JavaScript.